Date,TemperatureHighF,TemperatureAvgF,TemperatureLowF,DewpointHighF,DewpointAvgF,DewpointLowF,HumidityHigh,HumidityAvg,HumidityLow,PressureMaxIn,PressureMinIn,WindSpeedMaxMPH,WindSpeedAvgMPH,GustSpeedMaxMPH,PrecipitationSumIn
2013-1-1,78.1,63.7,50.7,68.4,56.6,50.5,99,81,41,30.04,29.86,8,1,8,0.00
2013-1-2,80.4,67.3,56.7,68.8,61.7,56.1,99,85,44,29.91,29.80,8,1,8,0.00
2013-1-3,75.9,65.7,58.3,72.2,64.5,58.0,99,96,81,29.98,29.85,5,1,8,0.00
2013-1-4,69.3,65.4,62.4,69.0,65.1,62.2,99,99,99,30.08,29.94,4,2,9,0.01
2013-1-5,75.2,67.8,61.0,70.1,64.7,59.4,99,91,64,30.10,30.00,8,2,9,0.37
2013-1-6,77.7,69.8,60.8,76.8,68.8,60.5,99,97,88,30.02,29.87,5,1,11,0.22
2013-1-7,72.1,68.6,63.0,69.6,66.2,62.7,99,92,80,30.02,29.93,8,3,11,0.01
2013-1-8,79.2,71.8,66.2,76.7,70.4,65.9,99,95,81,30.04,29.93,9,1,9,0.17
2013-1-9,80.2,73.7,68.2,78.7,72.2,67.9,99,95,81,30.11,30.01,11,2,11,0.00
2013-1-10,72.7,72.7,72.7,72.4,72.4,72.4,99,99,99,30.08,30.08,0,0,4,0.00
2013-1-11,72.7,72.7,72.7,72.4,72.4,72.4,99,99,99,30.08,30.08,0,0,4,0.00
2013-1-12,72.7,72.7,72.7,72.4,72.4,72.4,99,99,99,30.08,30.08,0,0,4,0.00
2013-1-13,72.7,72.7,72.7,72.4,72.4,72.4,99,99,99,30.08,30.08,0,0,4,0.00
2013-1-14,89.8,71.5,64.2,76.0,71.1,64.0,99,99,64,30.08,29.84,2,0,4,15.60
2013-1-15,78.3,67.6,64.2,71.1,65.9,64.0,99,94,77,29.90,29.80,11,1,11,15.60
2013-1-16,82.9,71.2,57.9,70.8,64.9,52.7,99,84,36,29.86,29.75,7,1,9,0.00
2013-1-17,83.5,69.2,55.4,74.2,61.7,44.8,99,79,36,29.83,29.65,15,4,19,0.00
2013-1-18,70.9,59.4,45.1,62.7,48.9,34.8,94,69,47,29.99,29.83,20,5,20,0.01
2013-1-19,72.5,68.0,64.6,67.6,65.0,59.5,99,91,75,30.00,29.87,13,4,18,0.20
2013-1-20,73.8,69.3,61.5,71.3,66.3,61.3,99,90,82,29.91,29.79,7,2,11,0.01
2013-1-21,72.7,72.7,72.7,67.3,67.3,67.3,83,83,83,29.79,29.79,2,2,4,0.01
2013-1-22,72.7,72.7,72.7,67.3,67.3,67.3,83,83,83,29.79,29.79,2,2,4,0.01
2013-1-23,72.7,72.7,72.7,67.3,67.3,67.3,83,83,83,29.79,29.79,2,2,4,0.00
2013-1-24,71.1,62.3,42.1,50.3,39.8,34.8,99,51,27,29.95,29.85,4,2,4,0.00
2013-1-25,74.7,67.0,50.9,64.3,51.4,39.4,99,63,28,29.94,29.81,5,2,7,0.00
2013-1-26,75.7,72.4,68.5,56.3,46.3,33.1,65,41,21,29.91,29.79,6,3,8,0.00
2013-1-27,75.2,73.9,68.5,53.7,52.6,51.2,59,48,43,29.88,29.81,4,3,6,0.00
2013-1-28,73.2,72.3,71.4,70.5,70.4,70.3,96,94,91,29.89,29.88,3,2,5,0.04
2013-1-30,78.4,76.9,75.2,58.5,57.2,55.4,56,51,45,29.57,29.55,4,3,8,0.04
2013-1-31,70.2,69.1,68.5,11.1,10.3,9.9,10,10,10,29.75,29.73,5,3,5,0.13
2013-2-1,68.5,68.5,68.5,9.9,9.9,9.9,10,10,10,29.75,29.75,3,3,4,0.13
2013-2-2,68.5,68.5,68.5,9.9,9.9,9.9,10,10,10,29.75,29.75,3,3,4,0.13
2013-2-3,68.5,68.5,68.5,9.9,9.9,9.9,10,10,10,29.75,29.75,3,3,4,0.13
2013-2-4,68.5,68.5,68.5,9.9,9.9,9.9,10,10,10,29.75,29.75,3,3,4,0.00
2013-2-5,73.9,68.4,63.5,49.4,43.5,9.9,60,43,10,29.75,29.64,3,1,5,0.13
2013-2-6,73.2,60.7,53.8,65.1,58.0,53.5,99,92,75,29.70,29.66,4,1,8,0.00
2013-2-7,77.7,74.6,72.7,67.9,66.7,64.2,85,77,63,29.56,29.53,4,2,4,0.00
2013-2-8,82.9,74.1,62.4,70.1,57.3,35.3,99,62,19,29.65,29.57,10,2,10,0.00
2013-2-9,79.0,68.6,54.9,66.1,57.6,53.3,99,70,50,29.81,29.74,10,3,12,0.01
2013-2-10,76.3,73.9,68.9,60.9,51.9,48.4,61,47,38,29.87,29.83,14,7,14,0.01
2013-2-11,80.4,72.4,60.1,68.6,60.8,48.7,99,70,33,29.86,29.72,9,3,11,0.00
2013-2-12,83.7,76.9,73.4,71.2,66.5,60.7,92,72,46,29.59,29.57,9,2,9,0.00
2013-2-13,83.1,77.9,71.2,69.0,62.5,54.9,81,60,38,29.59,29.47,6,4,10,0.00
2013-2-14,74.3,66.8,62.1,69.5,65.1,61.8,99,95,75,29.64,29.56,6,1,7,0.33
2013-2-15,70.9,64.6,59.2,64.7,61.1,58.6,99,89,66,29.65,29.58,4,1,4,0.64
2013-2-16,70.2,62.2,54.1,60.2,43.0,11.0,99,62,10,29.66,29.51,14,3,17,0.00
2013-2-17,56.1,50.9,40.1,23.4,2.9,-4.8,51,16,10,29.95,29.89,11,2,11,0.00
2013-2-18,66.2,53.1,35.6,39.6,27.6,16.7,77,42,19,29.98,29.91,7,2,7,0.00
2013-2-19,80.6,65.9,46.9,63.6,44.2,31.7,99,57,17,29.85,29.69,8,2,8,0.00
2013-2-20,75.6,64.3,53.2,67.4,58.5,53.0,99,83,60,29.76,29.66,8,2,8,0.00
2013-2-21,80.8,71.2,59.4,76.0,63.0,58.3,99,78,50,29.74,29.64,8,2,8,0.00
2013-2-22,80.6,76.9,73.0,76.2,73.2,71.9,99,88,76,29.73,29.64,10,5,11,0.00
2013-2-23,88.7,80.9,70.9,70.8,60.7,45.0,99,55,22,29.61,29.50,8,3,11,0.00
2013-2-24,86.0,73.5,67.6,73.6,67.7,57.2,99,85,38,29.61,29.52,8,3,10,0.00
2013-2-25,78.3,74.8,73.4,73.8,72.1,69.9,98,91,81,29.46,29.41,5,2,5,0.00
2013-2-26,81.1,77.1,74.3,73.1,70.9,66.5,96,82,61,29.46,29.40,8,4,12,0.00
2013-2-27,71.1,65.6,61.9,64.0,60.7,52.0,98,85,68,29.57,29.52,4,1,7,0.00
2013-2-28,77.4,63.7,51.1,53.5,35.6,11.1,98,48,10,29.63,29.49,10,2,12,0.00
2013-3-1,68.4,58.9,52.5,47.9,30.8,4.9,80,44,10,29.61,29.53,9,2,10,0.00
2013-3-2,62.6,55.3,46.4,29.3,11.2,-1.8,49,20,10,29.66,29.57,16,4,17,0.00
2013-3-3,60.6,50.2,40.8,23.2,10.1,-1.6,49,24,10,29.80,29.60,14,4,17,0.00
2013-3-4,40.5,36.7,36.5,25.5,25.4,23.3,64,63,50,29.81,29.79,2,0,3,0.00
2013-3-5,36.5,36.5,36.5,25.5,25.5,25.5,64,64,64,29.79,29.79,0,0,0,0.00
2013-3-6,36.5,36.5,36.5,25.5,25.5,25.5,64,64,64,29.79,29.79,0,0,0,0.00
2013-3-7,36.5,36.5,36.5,25.5,25.5,25.5,64,64,64,29.79,29.79,0,0,0,0.00
2013-3-8,36.5,36.5,36.5,25.5,25.5,25.5,64,64,64,29.79,29.79,0,0,0,0.00
2013-3-9,36.5,36.5,36.5,25.5,25.5,25.5,64,64,64,29.79,29.79,0,0,0,0.00
2013-3-10,36.5,36.5,36.5,25.5,25.5,25.5,64,64,64,29.79,29.79,0,0,0,0.00
2013-3-11,36.5,36.5,36.5,25.5,25.5,25.5,64,64,64,29.79,29.79,0,0,0,0.00
2013-3-12,36.5,36.5,36.5,25.5,25.5,25.5,64,64,64,29.79,29.79,0,0,0,0.00
2013-3-13,36.5,36.5,36.5,25.5,25.5,25.5,64,64,64,29.79,29.79,0,0,0,0.00
2013-3-14,36.5,36.5,36.5,25.5,25.5,25.5,64,64,64,29.79,29.79,0,0,0,0.00
2013-3-15,36.5,36.5,36.5,25.5,25.5,25.5,64,64,64,29.79,29.79,0,0,0,0.00
2013-3-16,36.5,36.5,36.5,25.5,25.5,25.5,64,64,64,29.79,29.79,0,0,0,0.00
2013-3-17,36.5,36.5,36.5,25.5,25.5,25.5,64,64,64,29.79,29.79,0,0,0,0.00
2013-3-18,36.5,36.5,36.5,25.5,25.5,25.5,64,64,64,29.79,29.79,0,0,0,0.00
2013-3-19,36.5,36.5,36.5,25.5,25.5,25.5,64,64,64,29.79,29.79,0,0,0,0.00
2013-3-20,36.5,36.5,36.5,25.5,25.5,25.5,64,64,64,29.79,29.79,0,0,0,0.00
2013-3-21,36.5,36.5,36.5,25.5,25.5,25.5,64,64,64,29.79,29.79,0,0,0,0.00
2013-3-22,36.5,36.5,36.5,25.5,25.5,25.5,64,64,64,29.79,29.79,0,0,0,0.00
2013-3-23,36.5,36.5,36.5,25.5,25.5,25.5,64,64,64,29.79,29.79,0,0,0,0.00
2013-3-24,89.8,49.5,36.5,76.0,41.0,25.5,99,73,31,30.38,29.79,16,1,21,14.61
2013-3-25,79.2,70.3,58.6,71.0,40.2,3.2,99,52,10,30.29,30.00,14,4,14,0.00
2013-3-26,66.7,57.4,50.4,28.9,9.4,-4.3,39,17,10,30.45,30.29,11,4,11,0.00
2013-3-27,66.7,60.5,41.2,26.7,10.6,3.1,45,16,10,30.57,30.48,5,3,5,0.00
2013-3-28,71.8,57.1,40.8,45.3,24.4,5.9,92,43,10,30.58,30.48,8,2,8,0.00
2013-3-29,77.0,60.7,45.1,53.9,31.0,11.0,99,47,10,30.61,30.50,7,2,7,0.00
2013-3-30,77.7,62.6,46.8,55.8,36.9,16.1,99,52,10,30.55,30.43,11,2,11,0.00
2013-3-31,84.4,69.1,53.8,65.6,46.1,20.2,99,55,10,30.47,30.30,8,2,8,0.00
2013-4-1,87.6,76.1,63.0,72.0,52.2,23.6,99,61,10,30.33,30.20,16,5,16,0.00